Wind_Speed
11 10 10 12 13 11 11 9 9 10 10 11 11 11 11 12 12 13 15 15 15 16 16 15 15 14 13 14 14 15 16 16 16 16 17 18 18 18 18 18 18 19 19 19 19 19 19 19 18 18 17 17 17 18 19 20 19 19 19 19 18 18 18 17 18 18 19 20 21 19 20 21 20 21 21 21 21 20 20 20 20 20 21 21 19
14 11 9 11 13 11 11 10 10 10 11 11 11 11 11 12 12 13 15 15 15 15 15 15 15 15 14 13 14 15 15 15 16 16 16 16 16 17 18 18 17 18 18 18 18 17 18 18 17 17 16 16 17 18 19 19 18 19 19 18 18 18 18 17 17 18 19 17 17 21 22 23 22 22 22 22 22 22 22 21 20 19 19 20 20
15 12 10 11 13 12 11 10 11 11 11 11 11 11 11 13 13 14 14 14 16 15 15 15 15 14 14 14 15 15 15 14 15 16 16 16 16 17 18 17 17 17 17 18 18 17 18 17 17 16 16 16 17 18 18 18 19 19 19 19 19 18 18 18 18 18 19 15 12 19 22 21 22 21 21 21 21 21 21 20 19 18 17 18 18
14 12 10 11 12 12 12 11 11 12 12 11 11 11 12 13 14 14 13 14 15 14 13 14 15 14 14 15 15 15 15 15 14 15 16 16 16 17 18 16 15 16 17 17 17 17 18 17 17 16 16 16 17 18 18 19 19 19 19 19 19 18 18 18 21 21 21 18 14 16 18 18 20 20 20 20 19 19 19 18 18 17 16 16 17
13 12 10 11 11 12 12 11 12 12 12 11 11 12 12 13 13 13 13 14 13 13 14 14 14 15 14 15 16 15 15 15 14 15 16 15 15 16 17 16 15 16 17 17 17 18 18 17 17 16 16 16 17 18 18 18 18 18 18 19 19 19 19 19 22 21 20 19 16 16 16 17 18 19 19 18 18 18 19 18 18 17 16 15 16
13 13 11 10 11 12 12 12 12 11 11 11 12 12 12 12 12 13 12 13 12 12 14 13 13 14 14 14 15 14 14 15 14 15 15 15 16 16 16 16 16 16 16 16 16 17 17 17 17 16 16 16 17 17 17 18 18 18 18 19 19 20 21 22 21 19 18 17 15 15 16 16 16 18 18 17 17 17 17 17 17 17 17 15 15
12 13 12 10 10 12 12 11 11 11 11 11 12 12 11 11 12 13 11 11 12 13 13 13 13 13 13 14 13 14 14 14 15 14 14 15 14 15 15 16 15 15 15 15 15 16 16 16 16 16 16 16 16 17 17 18 18 18 18 19 20 21 21 21 21 20 17 15 14 14 15 15 15 17 17 17 16 15 15 15 16 17 17 16 15
12 12 12 11 10 11 12 11 11 11 11 12 12 11 10 10 11 12 10 11 12 12 12 13 13 13 13 13 13 13 13 13 14 14 14 14 14 14 15 15 14 14 15 15 15 14 14 15 15 15 15 15 16 16 17 18 18 18 19 19 20 21 21 19 18 19 17 16 15 14 14 14 15 16 16 16 15 14 13 14 14 15 16 15 15
12 11 13 11 10 11 11 11 10 11 12 14 13 11 11 10 11 12 11 11 12 12 12 13 13 12 12 13 13 13 13 14 13 13 14 14 15 14 14 14 14 14 14 14 14 14 14 13 14 14 14 15 16 17 17 17 18 19 19 19 19 20 20 19 18 17 16 16 16 14 14 13 14 14 14 15 15 14 12 13 13 13 14 13 14
12 11 12 11 11 12 11 10 10 11 13 14 13 12 11 10 11 12 11 11 12 12 12 12 13 12 12 12 12 12 13 13 13 13 13 13 13 13 13 14 13 13 13 14 14 13 13 13 13 13 13 14 16 16 17 17 18 18 19 19 20 20 19 19 17 16 15 15 15 14 15 14 13 14 14 14 15 16 14 13 13 12 13 13 12
12 11 11 11 12 13 12 11 11 12 14 13 12 11 11 10 11 11 10 10 12 11 11 12 13 12 12 12 12 12 13 13 13 13 12 12 12 12 12 12 12 13 13 13 13 12 12 12 12 12 13 14 15 16 16 17 17 17 18 19 19 20 20 17 15 15 15 14 14 13 14 14 14 13 13 14 15 16 16 14 12 11 12 12 12
11 12 11 11 12 13 12 12 12 13 13 13 11 11 10 9 11 12 10 10 11 11 12 13 13 13 12 12 12 12 12 12 12 12 12 12 12 12 11 11 11 12 12 12 12 11 11 11 11 12 12 13 14 14 15 16 16 16 16 17 18 20 20 17 14 14 14 14 13 12 12 13 14 13 11 13 14 15 15 15 14 12 11 11 12
12 12 11 10 12 14 13 13 13 13 12 12 12 12 10 8 11 13 11 11 11 10 12 14 14 13 13 11 11 12 12 11 12 12 11 11 11 11 11 11 11 11 11 11 11 10 11 10 11 11 11 12 13 13 14 15 15 15 15 15 16 17 17 16 13 13 13 13 13 12 11 11 12 12 10 10 12 14 14 15 15 15 13 11 12
12 12 11 10 12 13 12 13 14 13 12 11 12 11 10 8 11 13 11 11 10 9 10 12 12 12 12 11 11 11 11 11 11 11 11 11 10 10 10 9 9 10 10 10 10 10 10 10 10 10 11 12 12 12 13 13 14 14 15 15 15 13 14 13 11 12 12 11 11 11 10 9 11 11 9 9 10 12 15 15 15 16 15 14 13
12 13 12 11 12 13 12 13 13 12 11 11 11 9 10 10 11 13 11 11 9 7 8 8 9 10 12 13 12 11 11 10 10 10 10 10 10 10 9 8 9 9 9 9 9 8 8 8 9 9 10 11 11 11 12 12 13 13 13 15 14 13 13 12 10 10 11 10 10 9 9 8 11 11 8 10 10 11 14 15 14 14 13 13 13
12 13 12 11 11 12 11 12 12 12 11 10 10 9 11 11 12 12 12 12 9 7 7 8 8 8 12 14 13 12 11 10 11 10 10 10 9 8 8 8 8 8 8 8 7 7 7 7 7 8 8 9 9 10 10 11 11 12 12 13 14 12 13 13 9 9 9 9 9 8 7 6 9 11 9 9 11 12 13 15 14 12 12 12 12
12 12 11 11 11 12 11 11 12 11 11 9 8 9 10 12 12 11 12 12 10 9 8 10 10 10 12 12 11 11 10 10 11 11 11 10 9 9 8 7 7 7 8 7 7 6 6 5 6 6 7 7 8 8 9 10 10 11 11 12 13 13 13 12 9 8 8 8 8 7 7 5 5 9 10 9 10 11 11 13 12 10 11 11 12
11 11 11 11 11 12 11 11 11 10 9 8 7 8 10 12 13 11 12 12 11 10 8 10 11 11 10 9 9 10 10 10 10 9 8 8 8 8 8 7 6 6 6 5 5 4 3 3 4 4 5 6 6 7 8 8 9 10 10 11 12 13 13 11 8 6 6 6 7 5 7 7 5 7 9 9 10 11 10 10 10 10 11 11 12
10 10 11 11 11 12 11 10 11 10 9 8 7 8 9 11 12 11 10 11 11 9 8 8 10 9 8 8 9 8 8 8 9 8 6 6 6 6 7 7 5 4 4 3 3 3 2 1 2 3 3 5 5 7 8 8 9 9 10 10 11 12 11 9 6 6 6 6 6 5 9 9 7 8 9 11 11 11 11 10 10 10 11 11 12
10 10 10 11 10 12 12 11 11 11 10 8 7 7 9 11 11 12 10 10 11 9 8 7 7 7 6 7 6 6 6 7 7 6 4 4 5 5 5 6 6 5 4 4 3 3 3 2 1 2 3 5 5 6 7 8 8 9 9 10 11 11 9 7 5 6 5 6 6 6 10 11 10 10 10 11 11 12 12 12 12 12 12 12 13
10 10 11 11 10 12 12 11 11 11 10 9 9 7 9 10 11 11 11 10 10 10 8 7 6 5 5 5 5 5 5 6 5 3 2 2 3 3 4 5 5 6 5 5 4 3 3 3 2 2 4 5 5 6 7 8 9 9 9 10 11 8 7 6 6 6 5 6 6 7 12 12 11 11 10 10 11 12 12 12 12 13 13 13 14
11 11 11 11 11 12 12 11 11 11 10 10 10 8 8 10 10 10 11 11 10 9 8 7 7 6 6 5 5 6 5 5 4 3 2 2 3 3 3 4 4 5 5 4 3 2 2 3 3 3 5 5 6 6 6 8 9 10 11 11 9 7 6 7 6 6 6 7 6 9 14 13 12 12 10 10 11 12 12 12 12 13 14 14 15
12 12 12 12 12 12 13 12 12 12 11 10 10 9 9 10 10 10 10 11 10 9 8 8 7 7 6 6 6 6 6 6 6 6 3 2 3 3 3 3 4 4 4 3 3 3 3 3 4 4 5 6 7 4 3 5 7 9 10 9 7 6 7 7 7 7 7 8 7 11 15 14 13 13 11 10 10 11 12 12 13 13 14 14 15
12 12 12 13 13 12 13 13 12 13 12 10 10 10 11 11 11 11 10 10 10 9 9 9 8 8 8 6 6 8 7 6 7 5 3 2 2 3 4 3 3 4 4 5 4 3 4 4 5 5 6 5 4 3 3 4 5 6 6 6 6 6 7 6 7 7 8 8 8 12 15 14 13 13 12 11 10 11 11 12 12 13 14 14 15
11 12 11 13 14 13 13 13 12 13 12 10 10 11 11 11 10 11 11 10 11 10 10 9 9 9 8 6 7 9 7 5 5 4 3 3 2 2 4 4 3 4 6 6 4 3 4 4 4 5 4 3 3 3 4 4 4 5 5 5 6 6 6 6 7 7 8 8 8 11 13 13 12 12 12 12 11 11 11 11 12 12 13 14 14
11 12 12 12 14 13 13 13 13 13 12 10 9 11 11 10 10 10 11 10 10 10 10 9 9 10 9 8 9 9 7 6 6 5 5 4 4 3 3 4 4 5 6 5 3 4 4 3 2 3 2 2 3 3 4 4 5 5 5 6 6 7 7 6 7 8 8 7 9 12 13 13 12 12 12 12 11 10 10 11 11 12 12 12 14
10 11 12 12 13 14 14 13 14 13 12 11 9 11 11 10 9 10 10 9 10 10 10 9 9 10 10 9 9 8 7 7 7 6 6 5 4 4 4 4 4 4 5 3 3 4 3 2 2 2 2 2 3 4 4 5 6 6 6 7 7 7 8 7 8 8 8 8 9 12 14 14 13 12 11 11 10 9 9 9 10 10 10 12 13
11 12 11 12 14 15 15 14 14 14 13 12 10 11 11 10 9 11 11 9 10 9 9 9 10 11 11 10 8 7 7 7 7 6 6 6 5 5 5 4 4 3 3 3 2 2 2 1 1 1 2 3 4 4 5 5 6 6 7 7 7 7 8 8 8 8 8 8 8 11 14 13 12 11 10 9 8 8 8 8 9 10 11 12 12
13 13 12 12 14 15 16 16 15 15 14 13 12 11 11 11 11 13 12 11 11 9 8 10 10 10 11 11 10 8 8 7 7 6 6 5 5 5 5 3 3 3 2 2 2 1 2 2 3 3 4 4 5 5 5 6 6 7 8 8 8 8 8 8 7 7 8 8 8 10 11 10 9 9 8 8 8 8 8 8 9 11 11 12 12
13 13 13 12 13 15 16 16 16 16 15 14 13 12 12 13 13 14 12 13 14 9 9 11 10 10 10 13 12 9 8 7 7 6 6 5 4 4 4 4 3 3 3 2 3 3 4 4 4 5 5 5 5 5 6 7 7 7 7 8 8 8 8 7 7 7 8 8 7 8 9 10 9 9 9 9 9 9 9 9 10 11 11 12 13
16 14 13 12 13 15 16 16 15 16 16 15 14 13 13 13 14 15 13 15 16 12 11 11 10 11 11 13 13 10 8 7 7 6 6 5 5 5 4 4 4 3 4 4 4 4 4 5 5 6 6 6 6 6 7 7 8 7 7 7 7 7 7 6 6 7 7 7 6 6 8 9 9 9 10 10 11 10 10 10 10 11 12 13 14
20 18 14 13 15 16 16 16 16 16 17 15 15 15 13 14 15 15 14 16 17 14 12 12 11 11 12 14 14 12 9 8 8 7 7 6 6 6 5 5 4 4 4 4 5 5 5 6 6 6 6 7 8 8 8 8 8 7 6 6 6 6 6 6 7 7 7 6 6 6 6 8 9 10 11 12 13 12 11 11 11 12 13 13 14
20 20 17 14 16 18 17 17 16 17 19 16 15 16 13 15 18 16 15 17 19 17 14 13 12 12 13 16 14 13 11 9 9 8 8 7 6 6 6 6 5 5 5 6 7 7 7 7 7 7 7 7 8 8 8 8 7 5 5 5 5 6 6 6 7 7 6 5 5 6 6 7 8 10 12 13 15 14 12 12 12 13 13 14 14
18 19 19 17 16 18 19 18 18 19 22 18 14 15 14 17 21 19 17 19 20 19 17 14 13 13 14 16 16 15 13 11 10 10 8 7 7 6 6 6 6 6 6 6 6 6 6 6 6 7 6 6 6 6 7 6 5 5 5 5 5 5 6 6 6 6 5 5 5 6 7 7 7 9 10 12 14 15 14 13 13 13 14 15 15
19 18 20 20 17 19 21 21 22 23 24 22 18 16 17 20 22 20 19 20 20 20 20 16 14 14 14 15 17 17 15 13 11 10 10 8 8 8 7 7 6 5 5 5 4 5 5 4 5 6 5 5 5 5 5 5 5 5 5 6 6 6 7 6 5 5 4 4 5 6 6 8 9 9 10 9 11 14 14 14 15 15 15 16 16
21 19 20 20 18 19 22 23 24 25 25 25 24 20 19 21 22 20 19 20 21 20 20 18 16 15 14 14 16 18 17 14 13 12 11 10 9 9 8 7 6 5 5 4 4 4 4 3 4 4 4 5 4 4 4 4 5 5 6 7 6 7 7 5 4 3 3 4 5 5 6 7 10 10 9 8 8 11 14 17 17 16 16 16 16
22 20 19 21 20 19 21 22 22 25 26 26 26 24 22 22 22 20 19 20 21 19 17 16 15 14 14 14 15 18 17 16 14 13 12 11 10 10 9 8 7 7 7 6 4 4 4 4 4 3 3 4 4 4 4 5 5 6 6 7 7 7 6 4 3 2 3 4 5 6 6 7 9 10 9 10 9 9 12 15 16 15 15 15 15
22 22 20 20 21 20 20 20 20 21 23 24 26 26 24 22 21 19 18 20 20 18 15 14 14 14 14 14 14 16 17 17 16 15 13 12 11 10 10 10 9 9 8 7 6 5 5 4 4 4 3 3 4 5 5 6 6 6 6 7 7 6 4 3 2 2 3 4 5 6 6 7 8 10 10 11 11 11 11 12 12 13 14 14 13
22 22 22 20 20 20 19 19 19 18 19 20 21 24 23 20 18 16 17 18 18 17 16 14 14 14 14 14 15 16 16 17 17 17 15 12 12 11 11 11 11 11 10 9 9 7 6 6 5 5 5 4 5 5 5 5 5 7 7 6 6 4 3 1 2 3 3 5 6 6 6 7 7 9 11 11 11 13 12 11 10 11 12 13 14
21 22 23 22 21 20 19 21 22 20 19 18 17 19 19 17 17 16 17 17 17 16 16 16 15 15 15 14 15 16 15 16 18 18 16 14 13 12 11 11 11 11 11 11 11 9 8 8 7 6 6 6 6 5 4 3 5 7 7 5 4 2 1 1 2 3 4 5 6 6 6 7 7 9 10 11 11 12 12 11 11 11 11 12 13
21 22 23 24 24 22 22 23 23 21 20 21 19 19 19 18 18 18 18 17 18 17 16 17 18 17 17 15 16 18 16 16 19 18 17 15 14 13 13 13 12 12 12 12 12 11 9 8 7 6 6 6 6 3 2 3 5 5 4 3 2 1 1 3 4 3 4 4 5 6 7 8 9 8 8 9 10 11 11 11 11 11 11 11 11
23 24 24 25 25 25 25 25 24 23 22 23 22 21 21 19 18 18 17 16 20 21 18 19 19 18 18 17 16 19 20 19 19 19 17 16 16 15 14 14 13 13 13 12 12 11 9 8 7 7 7 7 6 4 1 3 4 3 3 3 3 5 3 4 4 3 4 4 5 7 8 8 9 8 6 7 8 10 11 11 11 11 11 12 11
23 25 25 25 26 26 26 25 25 25 24 23 24 23 22 21 19 17 17 16 19 21 19 19 19 18 19 18 18 19 21 20 19 20 18 16 17 16 15 15 14 14 13 13 12 11 10 9 8 8 8 7 6 5 3 3 4 5 4 3 2 4 4 5 4 3 5 4 5 6 7 7 9 9 6 6 7 7 10 11 11 11 12 13 12
23 25 26 26 26 26 27 27 26 26 26 26 26 23 20 21 20 18 17 16 16 17 18 19 19 20 20 20 20 20 20 19 19 19 17 16 17 16 15 15 15 15 14 13 13 13 11 10 9 9 9 7 5 5 4 3 3 4 4 2 0 2 3 4 4 5 5 5 5 5 7 7 9 9 7 8 8 6 8 10 10 11 11 12 12
25 26 27 27 26 27 28 29 28 28 27 28 30 26 21 20 20 18 18 18 18 18 20 20 20 21 22 20 20 21 20 19 19 19 16 16 16 15 15 16 17 16 15 14 13 13 12 11 11 11 11 9 7 5 5 5 3 2 3 2 1 2 2 3 3 5 6 5 5 5 8 9 9 9 8 8 8 6 8 9 10 9 8 10 11
27 27 27 27 27 28 30 30 29 28 29 29 31 29 25 23 22 22 23 22 23 24 25 24 21 22 24 22 21 22 21 18 19 19 18 16 16 15 16 16 16 16 16 15 13 13 13 12 12 12 12 10 8 6 7 7 5 4 4 4 3 2 2 1 1 3 6 7 8 5 7 9 9 9 8 7 7 6 7 8 10 7 6 10 12
27 26 26 27 29 29 29 31 30 29 29 29 30 31 29 26 26 26 25 26 25 26 28 27 22 22 25 25 24 24 23 21 19 20 20 18 17 17 17 16 16 16 15 14 14 15 15 13 14 13 12 10 9 8 8 8 6 3 4 4 4 2 0 1 1 0 3 6 8 6 6 9 9 9 7 6 5 6 7 8 10 7 6 10 13
28 25 26 30 33 32 31 31 32 31 30 29 30 32 31 28 27 27 26 27 26 23 24 25 22 21 22 23 24 24 23 24 22 21 23 22 20 18 16 15 16 16 15 14 14 15 15 15 16 15 13 12 11 10 9 8 6 4 5 5 4 3 2 1 0 2 1 2 4 5 3 8 9 8 6 4 3 5 6 7 10 9 8 11 14
26 27 31 33 33 33 32 31 32 31 30 30 31 33 34 31 27 28 28 27 26 23 20 21 21 21 21 21 22 23 23 24 23 21 23 23 22 20 17 16 16 16 17 16 14 15 14 16 18 16 14 13 12 11 10 8 7 6 7 7 5 4 2 2 2 2 2 2 1 2 4 8 8 6 5 3 1 3 5 7 9 10 10 11 14
27 30 31 30 29 29 30 30 31 30 29 31 33 33 35 34 28 27 29 28 26 25 22 22 22 23 23 23 22 22 23 24 23 21 22 22 21 21 20 20 20 19 20 18 17 17 15 15 17 16 14 15 14 12 9 8 8 8 8 8 8 7 5 3 4 5 3 2 2 1 2 3 3 4 3 2 2 2 2 6 7 10 10 10 13
26 29 28 27 27 26 28 30 30 29 29 31 34 34 34 35 33 30 29 28 27 26 25 25 25 25 25 24 23 23 24 26 26 26 25 23 22 22 23 23 23 22 22 21 19 18 17 15 15 15 14 14 13 11 9 9 9 9 9 9 9 9 8 5 7 8 6 4 3 2 3 3 4 5 3 2 4 5 1 2 4 8 9 9 13
Wind_Direction
127 128 128 136 130 129 129 127 125 123 121 114 108 99 93 87 82 81 83 84 82 84 82 86 91 92 88 84 85 81 79 78 77 74 73 72 70 74 77 78 78 77 76 75 75 74 74 73 73 72 72 73 74 73 70 67 66 64 62 60 58 57 55 55 55 58 59 53 51 55 59 59 56 53 52 51 52 58 61 57 51 50 47 47 52
131 130 127 135 131 129 130 128 125 124 123 117 110 101 93 85 82 83 85 85 85 88 87 86 86 89 90 85 85 83 82 81 80 79 77 76 74 75 78 79 77 75 75 77 77 74 74 74 74 73 72 74 75 71 67 64 61 59 56 55 53 52 51 52 54 59 64 56 47 51 55 58 57 54 52 50 51 54 55 53 51 52 49 47 52
129 128 126 136 132 129 130 127 127 126 125 119 111 105 95 87 88 92 90 87 86 90 92 90 88 88 88 85 84 82 84 86 84 82 80 80 78 79 79 78 81 82 80 80 79 75 74 75 75 74 73 73 72 68 64 62 59 57 55 54 52 51 51 54 60 66 70 68 57 53 55 57 55 52 50 49 51 53 52 51 49 49 49 47 48
128 127 130 138 132 130 130 127 127 126 125 121 115 109 97 91 91 96 99 99 95 96 97 93 91 88 87 87 87 85 85 87 87 86 85 84 81 81 82 82 87 88 84 82 78 75 76 77 77 76 74 73 70 66 64 61 59 57 55 54 52 51 54 62 67 69 70 70 68 61 60 58 53 51 49 49 51 51 50 49 48 47 47 47 46
129 129 131 134 133 132 130 129 129 128 127 122 119 110 99 95 96 100 101 103 100 97 96 94 93 91 89 88 88 88 87 89 91 91 89 87 83 81 83 83 82 81 80 78 75 75 77 77 77 76 74 72 69 66 63 61 59 57 56 55 55 56 62 70 70 67 65 65 66 64 61 59 54 50 48 49 51 52 51 49 48 46 43 47 46
131 133 135 133 136 134 129 130 131 130 129 126 118 109 103 98 98 99 101 105 102 97 98 95 93 92 91 89 89 88 88 90 93 94 91 87 83 80 81 81 79 79 79 79 78 78 77 76 77 76 74 72 69 67 64 62 60 59 58 57 58 63 68 71 69 65 64 63 63 64 61 59 56 50 47 48 49 52 52 49 48 45 43 48 47
133 138 138 134 136 135 132 131 133 133 132 127 117 112 109 101 99 99 104 110 103 98 102 101 95 93 92 90 91 90 88 90 93 96 93 88 84 82 82 80 80 84 85 84 82 80 77 75 77 76 74 72 70 67 66 63 61 60 58 59 62 65 66 66 65 63 64 64 64 65 62 59 59 51 47 48 48 50 49 48 49 46 46 49 47
135 141 140 135 135 139 136 135 135 136 134 125 119 119 115 106 102 103 107 105 101 101 104 103 98 97 95 93 94 91 91 95 97 98 96 90 84 81 83 82 81 85 85 84 82 81 79 76 76 78 77 74 72 69 66 64 61 60 58 60 64 64 62 62 64 65 63 64 66 64 62 61 60 52 47 45 44 49 53 49 46 44 45 49 49
137 140 139 135 139 146 141 142 141 140 137 127 127 125 119 114 105 111 118 113 107 108 108 102 99 99 98 96 96 93 92 95 96 98 100 95 88 85 88 85 83 88 88 87 85 84 83 79 77 77 78 76 74 71 67 64 61 59 58 61 66 66 62 61 63 66 66 64 66 63 61 62 58 52 47 43 41 47 57 55 45 40 38 40 46
137 138 139 136 144 153 148 148 147 145 139 131 135 131 126 119 110 117 124 122 117 114 111 105 102 98 96 99 99 99 98 99 100 102 104 99 94 97 99 93 90 93 92 90 88 87 85 82 79 77 78 75 73 70 66 63 59 58 57 61 67 68 66 65 64 66 66 64 67 63 59 62 59 54 48 44 44 45 50 52 45 40 37 34 36
137 137 139 141 151 157 156 154 150 145 138 135 138 135 131 119 115 123 120 116 118 118 115 111 112 107 103 106 107 106 103 103 105 108 110 106 100 102 101 96 95 93 90 90 90 88 85 84 83 80 78 75 72 68 64 61 58 57 56 61 67 68 67 66 64 65 65 64 65 63 60 60 58 54 50 48 47 44 43 43 40 37 37 34 32
136 136 139 145 155 158 159 156 150 145 141 141 138 136 133 117 120 129 123 116 119 125 125 118 115 112 110 110 109 107 105 106 107 106 108 108 102 101 97 93 92 91 91 92 91 90 87 86 86 82 79 76 71 68 64 60 57 56 55 60 66 66 65 63 62 64 64 64 62 62 63 61 58 51 51 57 51 44 41 39 37 35 36 35 33
137 138 139 141 153 158 158 154 151 149 147 147 144 141 136 121 126 134 129 121 126 134 130 123 117 114 117 115 108 105 108 110 109 108 108 111 108 104 100 98 98 98 97 94 93 93 88 85 85 83 79 76 71 68 63 59 56 55 53 57 66 65 63 62 60 64 64 63 61 62 63 60 58 49 48 54 40 32 34 35 35 35 37 36 32
139 141 141 139 150 157 157 155 155 155 151 148 148 147 143 130 130 138 135 131 138 137 123 120 118 120 124 120 114 108 108 107 106 108 112 113 110 107 104 104 104 103 101 98 98 96 92 86 83 81 77 75 71 66 61 57 53 52 51 53 68 76 71 65 58 63 63 61 62 61 60 58 57 48 40 29 9 9 21 26 29 31 32 28 24
138 140 143 140 147 154 157 160 161 158 153 150 150 150 148 138 134 141 141 138 145 138 122 119 119 129 134 126 122 117 113 114 112 111 113 112 110 109 108 107 102 102 103 99 99 100 96 89 83 79 75 73 67 62 56 53 50 49 50 49 62 79 83 72 57 61 61 59 61 57 57 63 62 52 34 18 0 355 7 15 18 21 23 20 15
138 141 142 140 145 150 156 163 162 156 153 152 154 155 156 147 143 151 149 141 141 144 140 132 126 133 138 130 125 125 123 123 119 118 116 110 108 108 110 112 107 104 102 97 99 99 95 89 85 79 74 70 62 57 51 47 46 45 48 48 53 68 83 76 60 59 61 58 56 51 48 61 59 43 29 22 12 358 356 4 10 13 15 11 7
142 145 143 145 147 150 154 163 161 154 157 157 157 161 164 157 153 160 157 148 147 154 152 140 134 135 139 135 130 133 134 131 128 127 123 117 114 113 111 111 112 112 110 107 105 106 101 90 81 77 70 64 55 49 43 40 40 41 44 44 47 59 71 71 61 54 58 53 50 47 38 46 47 31 25 20 15 8 358 356 358 0 6 3 358
148 149 149 150 151 155 155 162 162 155 158 157 157 162 166 163 163 167 163 161 162 163 157 141 137 139 141 141 137 136 140 145 147 143 134 131 129 125 120 111 112 125 132 128 116 113 106 81 67 65 59 50 44 35 32 32 32 35 38 39 47 57 58 56 52 48 52 44 44 34 23 37 41 26 18 4 3 8 5 357 349 346 354 352 346
154 154 155 155 155 160 156 161 164 161 159 156 158 165 170 168 168 172 169 167 169 169 160 141 134 136 135 138 135 128 133 144 156 155 141 136 136 143 140 125 118 127 136 129 113 103 87 83 57 47 43 35 29 24 23 24 27 32 34 38 49 51 46 43 38 38 39 33 41 11 2 21 23 17 6 354 355 358 2 4 354 343 342 339 335
161 160 162 161 161 164 161 162 167 169 165 160 158 164 176 174 171 175 175 172 174 176 169 158 148 142 136 138 132 122 122 124 144 155 139 122 120 134 147 140 128 120 117 111 107 103 95 118 89 38 34 28 23 23 24 23 25 28 29 40 51 45 33 29 23 27 25 22 28 350 352 10 11 9 359 352 352 353 357 357 350 342 338 334 333
168 170 169 168 169 169 168 166 169 172 167 164 159 165 181 178 176 178 179 178 180 184 184 182 175 169 163 147 127 126 126 116 130 150 129 113 99 102 134 142 138 137 137 134 131 121 111 110 103 53 42 34 36 33 27 31 31 30 32 42 48 36 17 16 14 16 14 15 8 343 354 4 5 7 358 351 349 349 351 346 344 341 338 337 336
172 177 176 176 175 173 174 170 171 173 169 167 163 172 178 171 175 179 183 186 187 190 189 189 185 187 185 159 141 145 143 138 144 149 144 125 100 96 124 138 149 156 153 150 140 122 116 101 84 65 61 55 57 45 16 24 27 25 30 36 35 20 9 9 8 7 3 5 351 340 353 356 355 360 356 350 345 344 344 341 340 338 338 337 337
174 178 179 180 179 178 178 176 175 174 173 172 170 175 171 166 172 177 185 191 192 189 180 179 177 180 180 164 161 163 154 166 176 171 171 125 108 118 121 132 150 150 144 133 120 112 105 89 83 77 74 61 55 47 7 16 13 13 20 22 14 4 4 2 2 1 354 358 341 333 345 346 345 349 349 346 342 341 339 338 338 336 336 335 335
176 178 178 182 182 181 181 181 180 177 177 176 174 172 169 169 171 175 182 187 189 185 180 180 178 178 174 163 172 172 163 182 187 171 152 121 113 117 103 96 111 127 129 113 101 103 99 90 84 76 64 52 44 30 23 20 5 6 8 3 358 356 356 353 355 353 351 351 335 335 344 341 339 341 341 340 338 338 336 337 337 335 335 334 334
177 178 178 183 184 183 180 183 182 180 182 178 176 173 171 172 173 177 178 179 184 182 184 184 184 185 175 171 186 179 166 175 175 152 141 150 146 111 90 86 93 114 118 104 96 97 94 91 77 66 55 47 46 32 25 17 4 0 355 350 349 349 348 348 350 346 346 342 329 339 348 342 339 338 336 335 334 337 337 336 337 337 338 336 333
178 181 181 183 184 185 181 182 183 182 184 180 177 175 174 176 178 181 178 180 182 182 185 185 189 187 179 185 190 177 164 168 167 157 158 161 156 143 124 119 112 113 112 106 118 112 102 107 91 80 74 46 25 8 357 358 352 341 340 339 335 336 337 338 341 339 340 337 325 330 342 343 340 337 336 334 332 341 342 338 342 342 341 341 339
184 186 184 181 182 186 183 182 183 183 185 182 179 178 178 179 183 183 181 184 182 183 186 185 190 188 186 187 181 173 168 172 167 162 163 160 157 154 147 133 121 119 120 125 128 114 114 120 112 91 51 8 341 331 329 335 333 328 330 330 328 325 326 330 334 337 336 334 328 327 334 338 336 335 335 336 337 347 350 347 351 351 352 352 348
190 191 185 182 182 184 185 185 184 185 185 184 182 183 182 181 187 188 184 188 185 187 187 185 192 191 188 183 177 178 174 175 172 169 169 165 168 160 150 141 135 138 134 141 140 120 135 140 100 351 338 322 320 319 318 324 325 323 322 325 328 322 322 326 328 334 334 335 336 328 331 339 339 340 342 345 354 2 6 7 6 6 6 1 357
193 193 188 185 185 184 185 187 187 186 185 185 185 186 188 185 191 190 186 192 186 184 191 189 192 190 189 185 179 183 180 179 179 176 175 170 176 167 159 164 163 171 168 169 197 229 257 274 291 301 306 305 311 310 307 315 318 319 319 322 325 324 324 326 326 331 334 339 343 330 338 359 1 3 13 17 21 21 19 16 11 11 11 7 6
199 193 191 189 186 186 187 188 188 189 187 187 188 188 190 191 197 195 190 196 186 182 197 193 191 190 194 194 183 182 188 186 184 181 182 182 189 186 179 189 198 209 222 237 244 263 275 278 288 294 297 301 304 304 305 308 311 312 316 322 325 325 325 328 331 335 338 342 346 338 352 19 28 29 32 29 26 20 14 10 6 9 11 12 9
207 197 195 193 188 188 189 189 189 191 191 190 192 191 192 194 202 202 199 202 192 187 200 195 195 194 199 203 190 183 191 193 195 194 196 200 208 213 213 216 226 235 242 254 257 268 280 284 292 292 293 296 296 300 303 305 311 311 315 326 329 330 333 337 339 340 343 343 350 356 357 14 31 32 25 19 15 11 8 7 5 8 8 11 11
213 206 199 192 192 193 192 191 190 195 196 194 197 196 195 197 201 201 203 210 202 196 201 198 199 198 203 210 201 192 194 196 202 202 206 212 216 224 229 232 238 245 253 260 262 270 279 284 287 286 289 291 293 297 296 300 306 310 322 334 336 339 344 343 342 344 346 346 358 12 9 12 16 12 10 10 10 11 10 9 7 7 8 14 20
212 211 204 194 196 198 195 193 192 199 201 197 201 202 198 203 205 201 203 212 209 204 204 202 202 201 208 215 209 202 200 199 206 207 207 212 218 225 231 237 244 251 260 270 274 277 279 282 282 281 287 289 290 291 292 296 302 310 325 338 339 343 347 342 344 347 350 358 8 18 25 26 12 3 7 6 9 15 15 12 11 12 18 29 34
206 208 206 198 196 197 198 198 196 203 206 200 200 204 202 210 214 208 208 215 213 210 208 205 206 203 212 221 216 210 206 200 206 208 206 210 215 220 229 240 246 253 263 270 278 282 282 288 288 284 285 288 291 294 297 300 303 313 323 332 332 337 342 340 346 354 359 10 16 26 30 25 17 17 18 7 5 16 22 22 25 31 37 44 48
201 202 203 200 194 196 203 206 206 209 212 207 203 205 209 216 220 215 215 221 219 217 216 210 210 208 211 222 222 218 214 205 202 203 205 209 211 218 229 241 243 246 256 259 269 280 281 296 301 293 288 288 294 299 302 300 303 313 317 321 322 327 334 339 353 4 16 18 18 32 29 19 24 31 32 19 4 15 34 43 42 48 55 58 59
201 200 199 198 195 197 206 210 213 215 217 217 213 211 216 220 223 221 220 226 226 225 225 220 217 215 211 216 224 225 220 212 205 201 203 207 210 221 231 236 231 225 235 244 258 268 270 295 305 295 292 291 298 304 302 301 304 311 312 313 314 314 322 339 360 17 25 26 30 37 27 21 30 33 35 38 23 21 44 56 53 56 63 63 60
200 200 196 197 197 196 203 207 212 218 220 223 221 217 219 223 225 224 224 229 231 229 227 224 220 218 215 213 220 227 223 215 208 202 204 210 215 223 230 231 223 221 230 237 244 250 255 280 290 281 287 290 294 297 297 304 309 312 312 313 313 310 315 338 6 32 28 38 49 41 37 31 31 38 41 44 49 44 49 54 52 55 61 59 53
201 201 197 197 198 196 199 202 206 214 218 223 227 226 225 227 228 226 226 231 232 229 223 220 219 218 218 213 214 224 224 215 209 205 205 213 220 224 229 229 225 226 232 233 235 243 250 261 277 274 265 274 290 296 298 308 315 314 309 308 311 312 320 341 31 43 40 62 57 43 49 45 34 45 52 52 64 70 63 56 50 50 54 53 49
201 202 200 198 199 199 199 202 203 205 210 216 223 227 226 225 223 220 222 226 227 224 219 218 221 222 221 214 211 219 219 213 212 210 209 214 222 226 229 229 226 226 231 232 233 239 240 238 251 268 267 260 273 290 296 304 309 302 294 298 304 304 324 1 91 59 66 77 58 50 54 50 43 49 58 63 74 78 75 71 65 55 49 43 40
203 202 201 200 200 200 201 206 209 206 207 208 209 214 215 213 214 214 216 219 218 219 218 220 224 226 224 215 212 216 213 212 217 216 214 216 222 226 225 225 224 222 228 233 234 237 237 234 239 258 267 261 263 268 274 292 301 293 281 282 291 284 302 149 124 68 88 84 57 60 57 54 58 52 58 69 78 81 76 74 72 65 55 41 31
203 203 202 202 201 199 201 207 210 209 207 207 205 207 207 207 209 212 214 213 214 216 218 224 227 226 226 220 219 221 213 212 219 219 217 218 224 228 226 227 225 223 228 230 233 239 240 237 239 252 254 256 265 251 249 293 289 288 295 290 243 186 164 161 141 74 95 90 65 72 59 57 67 60 56 64 73 77 75 70 66 62 58 49 37
201 202 203 203 202 201 202 204 206 207 207 206 206 208 208 208 209 212 213 211 218 223 221 222 224 225 227 224 222 224 219 217 221 223 222 223 227 229 228 229 226 224 226 228 232 236 239 235 236 246 238 237 251 235 237 299 285 297 318 292 185 150 136 155 153 93 105 101 76 74 58 55 67 66 62 62 68 72 69 64 57 53 50 47 42
202 203 204 203 202 203 203 202 202 205 207 206 206 207 208 209 209 211 212 213 222 226 223 220 221 222 224 224 223 224 221 219 222 226 225 225 227 228 228 228 226 224 225 227 229 230 234 233 232 236 228 229 246 246 242 253 280 304 279 247 168 147 153 165 171 128 116 109 87 72 54 52 66 71 71 73 77 67 61 57 46 44 42 39 37
204 205 204 203 203 203 203 201 201 203 205 207 207 206 207 210 211 212 213 216 220 222 222 224 223 223 223 223 225 225 222 221 220 222 223 222 224 225 226 227 226 226 224 223 224 225 224 218 217 222 221 226 230 226 219 210 252 301 274 240 122 210 179 156 160 140 128 118 103 78 55 60 73 75 71 78 84 66 55 53 41 39 37 33 33
206 206 203 202 203 203 203 201 202 203 203 208 211 207 205 209 210 212 216 219 220 218 219 222 223 225 223 222 226 227 224 222 220 219 220 219 220 223 226 228 229 228 224 221 221 222 217 209 209 210 209 218 218 196 197 206 211 238 269 291 258 217 122 110 153 152 147 136 124 88 53 64 82 77 68 79 84 68 55 48 42 41 32 28 30
207 206 203 202 204 203 203 202 202 204 203 207 211 208 204 204 204 207 211 214 217 217 217 219 221 225 225 223 224 226 223 222 221 219 217 215 217 222 225 227 227 225 221 219 218 218 215 205 204 207 206 215 217 198 202 207 196 194 234 270 271 280 34 55 201 153 149 147 148 123 52 57 82 78 65 75 82 73 59 42 43 47 21 21 24
208 205 202 203 206 205 203 202 202 204 204 203 204 204 203 201 203 205 208 211 214 218 219 220 221 225 228 225 223 225 223 221 220 218 217 217 217 219 220 222 221 221 218 215 215 218 217 211 209 209 208 213 213 204 203 199 193 207 222 230 228 218 304 319 337 62 147 150 152 138 60 46 70 76 63 64 78 78 60 36 40 47 14 10 12
207 200 200 204 208 207 204 203 204 206 205 201 200 202 203 201 202 206 210 213 214 215 217 219 221 223 225 223 222 222 221 222 221 219 219 218 218 218 217 218 217 219 219 214 217 222 220 219 216 210 210 219 217 202 190 184 197 214 195 196 197 181 196 184 145 316 285 167 158 138 43 23 48 64 57 48 70 80 55 27 32 33 11 1 359
203 201 207 210 209 208 207 204 205 207 205 202 200 203 208 206 202 205 210 215 216 215 215 215 216 217 219 219 218 217 217 221 221 220 220 219 220 220 218 221 217 215 219 217 217 220 216 214 213 210 212 212 200 188 185 189 214 216 184 185 190 171 167 164 190 245 239 256 210 134 357 1 22 38 45 25 11 89 45 17 24 22 7 358 352
207 209 210 211 209 207 207 206 206 205 204 203 202 203 209 209 203 202 208 213 215 215 213 213 212 211 214 215 213 212 213 216 215 214 216 215 215 218 223 227 223 220 224 221 217 218 215 212 211 208 204 195 184 185 195 206 218 213 188 180 180 168 157 165 194 204 208 245 250 249 316 342 345 342 1 329 246 174 22 5 9 10 4 355 350
210 211 210 210 209 205 205 207 206 205 204 204 204 204 206 209 208 206 206 209 210 211 212 213 211 206 208 211 210 209 208 210 211 210 212 214 217 223 228 228 225 226 227 223 220 219 212 204 197 194 192 189 190 195 202 209 211 204 192 185 183 179 177 183 188 190 195 199 207 237 222 214 255 260 266 277 223 208 268 341 339 358 2 350 347
Height
847 848 849 849 851 851 852 852 852 852 852 852 853 853 853 853 852 853 853 853 853 854 853 854 854 854 855 855 855 854 854 854 854 854 854 854 854 854 854 854 854 854 854 854 855 855 855 855 855 855 855 855 855 855 855 855 855 854 854 854 854 854 854 854 854 854 854 854 854 854 854 854 854 854 853 853 852 852 852 852 852 852 852 852 852
847 849 849 850 851 851 853 852 853 853 853 854 854 854 853 854 853 854 854 855 855 855 855 855 855 855 856 855 855 855 855 855 856 856 856 856 856 856 856 856 856 856 856 856 857 857 857 857 857 857 857 857 857 857 856 856 856 856 856 856 856 856 856 855 855 855 855 856 856 855 855 856 856 855 855 854 854 854 854 854 854 854 854 854 853
846 848 849 850 851 851 853 853 854 854 855 854 855 855 855 855 855 855 856 856 856 856 856 856 856 856 856 856 856 856 856 857 857 857 857 858 858 858 857 858 858 858 858 858 858 858 859 858 859 858 859 858 858 858 858 858 858 858 858 858 857 857 857 857 856 857 857 857 857 857 856 857 857 857 856 856 856 855 855 855 855 855 855 855 854
846 848 849 850 851 852 853 854 854 855 855 855 856 856 856 856 856 857 857 857 857 857 857 857 858 857 858 857 857 858 858 858 859 859 859 859 859 859 859 860 859 859 859 860 860 860 860 860 860 860 860 860 860 859 859 859 859 859 859 859 859 858 858 858 858 858 858 858 858 858 858 858 858 858 858 858 857 857 857 857 857 856 856 856 856
847 848 850 850 852 852 853 854 855 856 856 856 857 857 857 857 858 858 858 858 858 858 858 859 859 859 859 859 859 859 860 860 860 861 861 861 861 861 861 861 861 861 861 861 861 862 862 862 862 862 862 861 861 861 861 861 861 861 860 860 860 859 859 859 859 859 859 859 859 860 860 860 860 860 859 859 859 859 859 858 858 858 858 857 857
848 849 850 851 852 853 854 855 856 856 857 857 857 858 858 858 859 859 859 860 860 860 860 860 860 860 860 860 861 861 861 861 862 862 862 862 862 862 862 862 863 863 863 863 863 863 863 863 863 863 863 863 863 863 862 862 862 862 861 861 861 860 860 860 859 860 860 860 861 861 861 861 861 861 861 861 860 860 860 860 860 859 859 859 859
848 850 851 852 853 853 854 855 856 857 857 858 858 859 859 860 860 860 861 861 861 861 861 861 861 862 862 862 862 862 863 863 863 863 864 864 863 864 864 864 864 864 864 864 865 865 865 865 865 864 864 864 864 864 864 863 863 862 862 862 862 861 861 861 861 861 861 862 862 862 863 863 863 863 863 862 862 862 862 861 861 861 860 860 860
849 850 851 852 853 854 855 856 857 857 858 859 859 860 860 861 861 862 862 862 862 862 862 862 863 863 863 863 863 864 864 864 865 865 865 865 865 865 865 865 865 865 866 866 866 866 866 866 866 866 866 865 865 865 865 864 864 864 863 863 863 862 862 862 862 862 863 863 863 863 864 864 864 864 864 864 863 863 862 862 862 862 861 861 861
850 851 852 853 853 854 855 856 857 858 859 860 860 861 861 862 862 863 863 863 863 863 864 863 864 864 864 865 865 865 865 866 866 866 866 866 866 866 866 867 867 867 867 867 867 867 867 867 867 867 867 866 866 866 866 866 865 865 864 864 864 863 863 863 863 864 864 864 865 865 865 865 866 865 866 865 864 863 863 863 863 863 862 862 861
850 851 852 853 854 855 855 857 858 859 860 860 861 862 862 863 863 864 864 864 864 865 865 865 865 865 865 866 866 866 866 867 867 867 867 867 868 867 868 868 868 868 868 868 868 868 868 868 868 868 868 868 867 867 867 867 866 866 866 865 865 864 864 864 865 865 866 866 866 866 866 866 867 867 867 866 865 864 864 864 864 864 863 863 862
851 852 853 853 854 855 856 857 858 859 860 861 862 863 863 864 864 865 865 865 865 866 866 866 866 866 867 867 867 867 867 868 868 868 868 869 869 869 869 869 869 869 869 869 869 869 869 869 869 869 869 869 869 868 868 868 868 867 867 867 866 866 865 866 866 866 867 867 867 868 868 868 868 868 868 867 867 866 865 865 865 864 864 864 863
851 853 853 853 854 856 857 858 859 860 861 862 863 864 864 864 865 866 866 866 866 867 866 867 867 867 868 868 868 868 868 869 869 869 869 870 870 870 870 870 870 870 870 870 870 870 870 870 870 870 870 870 870 869 869 869 869 869 868 868 867 867 867 867 867 868 868 868 869 869 869 869 868 869 868 868 867 867 866 866 865 865 864 864 863
852 853 853 854 855 856 857 858 860 861 861 862 863 864 865 865 866 866 867 867 867 867 867 867 867 868 868 869 869 869 870 870 870 870 871 871 871 871 871 871 871 871 871 871 871 871 871 871 871 871 871 871 871 871 871 870 870 869 869 869 868 868 868 868 869 869 869 869 869 869 869 869 869 869 869 868 867 867 867 866 866 865 865 864 864
852 853 854 855 855 857 858 859 860 861 862 863 864 865 865 865 866 867 868 868 868 867 867 868 868 869 869 870 870 870 871 871 871 871 872 872 872 872 872 872 871 872 871 872 872 872 872 872 872 872 872 871 871 871 871 871 871 870 870 870 869 869 868 869 870 870 870 870 870 870 870 870 869 869 869 869 868 868 867 867 866 866 865 864 864
853 853 855 855 856 857 858 860 861 862 863 863 865 865 866 866 867 867 868 868 868 868 868 868 869 869 870 871 871 871 872 872 872 872 873 873 873 873 873 873 872 872 872 872 872 872 872 872 872 872 872 872 872 872 872 872 871 871 871 871 870 870 870 870 871 871 871 871 871 871 870 870 869 869 870 869 868 868 867 867 866 866 866 865 865
853 854 855 856 857 858 859 860 862 863 863 864 865 865 866 866 867 868 868 869 869 869 869 869 869 870 871 871 872 872 873 873 873 873 873 873 874 873 873 873 873 873 873 873 873 873 873 873 873 873 873 873 873 873 873 873 872 872 872 872 871 871 871 871 872 872 871 871 871 871 871 870 869 869 870 870 869 868 867 867 867 867 867 866 866
853 855 855 857 858 859 860 861 862 863 864 865 865 866 867 867 868 868 869 869 869 869 869 870 870 870 871 872 872 873 873 873 874 874 874 874 874 874 874 874 874 874 874 874 874 874 874 874 874 874 874 874 874 874 874 874 873 873 873 873 872 872 872 871 872 872 872 872 872 872 871 870 870 869 870 870 869 868 868 868 868 867 867 867 866
853 855 856 857 858 859 860 861 862 864 864 865 866 866 867 867 868 868 869 869 869 870 870 871 871 871 872 872 873 873 874 874 874 874 874 874 874 874 874 874 874 874 874 874 874 874 874 874 874 874 874 875 875 874 874 874 874 874 873 873 873 873 872 872 873 873 873 872 872 872 871 871 870 870 870 870 870 869 869 868 868 868 867 867 866
854 855 856 857 858 859 860 861 862 864 865 865 866 866 867 867 868 869 869 870 870 870 871 871 872 872 873 873 874 874 874 874 874 875 875 875 874 875 874 875 875 875 875 875 875 875 874 875 875 875 875 875 875 875 875 874 874 874 874 874 873 873 873 873 873 873 873 873 873 872 872 871 871 870 870 870 870 869 869 869 868 868 867 867 866
854 854 856 857 858 859 860 861 862 863 865 865 866 866 867 867 868 869 869 870 870 871 871 872 873 873 873 874 874 874 875 875 875 875 875 875 875 875 875 875 875 875 875 875 875 875 875 875 875 875 875 875 875 875 875 875 875 874 874 874 874 873 874 874 874 874 874 873 873 873 872 871 871 871 870 870 870 869 869 869 868 868 867 866 865
853 854 855 857 858 859 860 861 862 863 864 865 866 866 866 867 868 869 869 870 870 871 872 872 873 873 874 874 875 875 875 875 876 875 875 875 875 875 875 875 875 875 875 875 875 875 875 875 875 875 875 875 875 875 875 875 875 875 874 874 874 874 874 874 874 874 874 874 874 873 872 871 871 870 870 870 870 869 869 868 868 867 866 866 865
852 853 855 856 857 858 859 861 861 863 864 865 865 865 866 867 868 869 869 870 870 871 872 872 873 873 874 874 876 876 876 876 876 876 875 875 875 875 875 875 875 875 875 875 875 875 875 876 876 876 876 876 875 876 876 875 875 875 875 875 875 875 875 875 875 875 874 874 874 873 872 871 871 870 870 870 869 869 868 868 867 866 866 865 864
850 852 853 855 856 857 858 860 861 862 863 864 865 865 866 867 868 868 869 869 870 871 872 872 873 873 874 875 876 876 876 876 875 875 875 875 875 875 875 875 875 875 875 875 876 876 876 876 876 876 876 876 876 877 877 876 876 876 875 875 875 875 875 875 875 875 874 874 873 873 872 871 870 870 869 869 869 868 868 867 866 866 865 864 864
849 850 852 854 855 856 858 859 860 861 862 863 864 864 865 866 867 868 869 869 870 871 871 872 872 873 873 874 875 874 875 875 875 875 875 875 875 875 875 875 875 875 875 876 876 876 876 876 877 877 877 877 878 878 877 877 877 877 876 876 876 875 875 875 875 874 874 874 873 872 871 870 870 869 869 868 868 868 867 867 866 865 865 864 863
847 849 851 852 854 855 856 858 859 860 861 862 863 863 864 865 866 867 868 869 869 870 871 871 872 872 872 873 873 873 874 874 874 875 875 876 876 876 876 876 876 876 876 876 876 877 877 877 877 877 878 878 878 878 878 878 877 877 877 876 876 875 875 875 874 874 874 873 872 872 871 870 869 869 868 868 867 867 866 866 865 865 864 863 862
846 848 849 851 852 854 855 856 858 859 860 861 862 863 863 865 865 866 867 868 868 869 870 870 871 871 872 872 872 873 873 874 874 874 875 876 876 876 876 876 876 876 876 877 877 877 877 878 878 878 879 879 879 879 878 878 877 877 877 876 876 875 875 875 874 874 873 873 872 871 871 870 869 868 867 867 866 866 866 865 864 864 863 863 862
846 847 848 850 851 852 854 855 856 858 859 860 861 862 862 864 865 865 866 867 868 868 869 870 870 870 871 872 872 873 873 874 874 874 875 875 876 876 876 877 877 877 877 877 878 877 878 878 878 879 879 879 879 878 878 878 877 877 877 876 876 875 875 874 874 874 873 873 872 871 870 869 868 868 867 866 866 865 865 864 864 863 863 862 862
845 846 847 848 849 851 853 854 855 856 857 859 860 861 861 863 863 864 865 866 867 868 868 869 870 870 870 871 872 873 874 874 874 874 875 875 876 876 876 876 877 877 877 878 878 878 879 878 878 878 878 879 878 878 878 878 877 877 876 876 876 875 875 874 874 874 873 873 872 871 870 869 868 867 866 866 865 865 864 864 864 863 863 862 862
843 845 846 847 848 850 851 853 854 855 856 857 859 860 860 861 862 863 863 864 865 867 868 868 869 869 870 871 872 873 873 874 874 875 875 875 876 875 876 877 877 877 878 878 878 879 879 879 879 878 878 878 878 878 877 877 877 877 876 876 875 875 874 874 874 873 873 873 872 871 870 869 868 867 866 866 865 865 865 864 864 863 863 862 862
842 844 845 846 847 848 850 851 853 854 855 856 857 858 859 860 861 861 862 863 864 865 866 867 868 869 869 870 871 872 873 874 874 874 875 875 876 876 876 877 877 877 878 878 878 879 879 879 879 878 878 878 878 877 877 877 876 876 876 875 875 875 874 874 873 873 873 873 872 872 871 869 868 868 867 866 866 865 865 864 864 863 863 862 862
841 842 844 845 846 848 849 850 852 853 854 855 856 857 858 859 859 860 861 862 863 864 865 866 867 868 869 869 870 871 872 873 873 874 874 875 875 876 876 877 877 877 878 878 878 878 878 879 879 878 878 878 878 877 877 877 876 876 875 875 875 874 874 874 873 873 873 873 872 872 871 870 869 868 868 867 866 866 865 864 864 863 863 862 862
838 840 842 844 845 846 848 849 851 851 852 854 855 856 857 858 858 859 860 861 862 863 864 865 866 867 867 868 868 869 871 872 872 873 874 874 875 875 876 877 877 877 878 878 878 878 878 878 878 878 878 878 878 877 877 877 876 876 875 875 875 874 874 874 873 873 873 873 872 872 872 871 870 869 868 867 867 866 865 864 864 863 863 862 862
837 838 840 842 843 845 847 848 849 850 851 853 854 855 856 856 857 858 859 859 861 862 863 864 865 866 866 866 867 868 869 870 871 872 873 873 874 875 876 876 876 877 877 877 877 877 877 877 877 877 877 877 877 877 876 876 876 875 875 875 874 874 874 873 873 873 873 873 873 872 872 872 871 870 869 868 867 866 865 865 864 863 863 862 862
835 836 838 840 841 842 844 846 847 849 849 852 853 854 855 855 856 857 858 858 859 861 861 863 864 864 865 865 866 866 867 869 870 870 871 872 873 874 875 875 876 876 876 877 877 877 877 877 877 876 876 876 876 876 876 876 875 875 875 875 874 874 874 873 873 873 873 873 873 872 872 872 871 870 869 868 868 867 866 865 864 864 863 862 862
833 834 835 837 839 840 842 844 845 847 848 850 851 852 853 854 855 856 857 857 858 859 860 861 862 863 864 863 864 865 866 867 868 869 870 871 872 872 873 874 874 875 875 876 876 876 876 876 876 876 876 876 875 875 875 875 875 875 875 875 874 874 873 873 872 872 873 873 873 872 872 872 871 870 870 869 869 868 867 866 865 864 864 863 863
830 831 833 835 837 838 839 841 843 845 846 848 849 851 851 852 853 854 855 856 857 858 859 860 861 862 862 862 863 863 864 865 866 867 868 869 870 871 872 872 873 873 874 874 875 875 875 875 875 875 875 875 875 875 875 875 875 875 875 875 874 874 873 873 872 872 872 872 873 872 872 871 870 870 870 870 869 869 868 867 866 865 865 864 864
827 829 830 832 834 835 837 839 841 842 844 846 847 849 850 851 852 853 854 855 856 857 858 859 860 860 861 861 861 861 863 864 864 865 867 868 868 869 870 871 871 872 873 873 874 874 874 875 875 875 875 875 874 874 874 874 874 874 874 874 874 873 873 872 872 872 872 872 872 872 871 870 870 869 869 869 869 869 869 868 867 867 866 865 864
824 826 828 829 831 833 834 836 838 840 842 843 845 846 848 849 850 852 852 853 854 855 857 857 858 859 859 860 860 860 861 862 863 864 865 866 867 867 868 869 870 870 871 872 872 873 873 874 874 874 874 874 874 873 873 873 873 873 873 873 873 873 873 872 872 872 872 872 871 871 871 870 869 869 868 869 868 868 869 869 868 868 867 866 865
822 823 825 827 829 831 832 834 836 838 840 841 843 845 846 848 849 850 851 851 852 853 854 855 856 857 857 858 858 858 859 860 861 862 863 864 865 866 867 867 868 869 870 870 871 871 872 872 872 873 873 873 873 873 873 872 872 872 872 872 872 872 872 872 872 872 872 872 872 871 870 870 869 869 869 868 868 868 868 869 869 868 867 866 866
819 820 822 824 825 827 829 831 833 835 837 839 841 842 844 845 846 847 848 849 850 851 852 853 854 855 856 856 856 857 858 859 859 861 862 863 864 864 865 866 866 867 868 869 869 870 870 871 871 871 872 872 872 872 872 871 871 871 871 871 871 872 872 872 872 872 872 872 872 871 871 870 870 869 869 868 868 868 868 868 868 868 868 867 866
816 818 819 820 821 823 825 827 830 832 834 835 837 838 840 841 843 844 845 846 847 848 849 851 852 853 854 854 855 855 856 857 858 859 860 861 862 863 863 864 864 865 866 867 867 868 869 869 870 870 870 871 871 871 871 871 871 870 869 870 870 871 871 871 872 872 872 872 872 871 871 870 870 869 869 869 869 868 868 868 868 868 868 867 867
812 814 815 816 818 819 821 823 826 828 829 831 833 834 836 837 839 840 842 843 843 845 846 848 849 851 852 853 853 853 854 855 856 857 858 860 861 861 862 862 863 863 864 865 866 867 867 868 868 869 869 869 869 870 870 870 870 869 869 868 868 869 871 871 872 872 872 872 872 871 871 870 870 870 870 870 869 869 869 868 868 867 867 867 867
808 810 811 812 814 815 817 819 822 824 825 826 828 830 831 833 835 837 838 840 840 842 844 846 847 848 849 850 851 851 852 852 854 855 856 857 858 859 860 861 861 861 862 863 863 864 865 866 867 867 868 868 868 869 869 870 869 868 868 867 866 868 870 870 871 872 872 872 872 871 871 871 870 870 870 870 870 869 869 868 868 867 867 867 866
805 806 807 808 810 811 813 815 817 818 820 821 823 826 828 830 832 834 836 837 838 839 841 843 844 845 846 847 848 849 849 850 852 853 854 855 856 857 858 858 859 860 860 861 861 862 863 864 865 865 866 866 867 867 868 869 869 869 867 865 866 867 867 869 870 871 872 872 872 872 871 871 870 870 870 869 870 869 869 868 868 867 867 866 866
800 801 802 804 805 807 808 810 812 813 815 816 818 821 824 827 829 831 833 834 835 836 837 839 840 841 842 843 845 846 847 848 849 851 852 853 854 855 856 856 857 858 858 859 859 860 861 862 862 863 864 865 865 866 867 868 868 869 867 866 866 866 865 867 869 870 871 871 872 872 871 871 870 869 869 869 869 869 868 868 867 867 867 866 866
794 796 798 800 801 803 804 806 807 809 810 812 813 817 819 821 824 826 828 829 830 831 832 834 836 837 838 840 842 843 844 845 847 848 849 850 851 852 853 854 855 856 856 857 857 858 859 859 860 861 862 863 863 864 865 866 867 867 868 867 866 866 866 866 868 869 870 871 871 872 871 870 870 869 869 869 869 868 868 868 867 867 867 866 865
788 791 794 796 797 798 800 801 803 804 806 808 809 812 814 816 818 820 821 823 825 825 826 830 832 834 835 837 839 840 841 843 844 846 847 848 849 850 851 852 853 854 854 855 855 856 857 857 858 859 860 861 862 863 863 864 865 866 866 866 866 866 867 867 867 867 869 870 870 871 870 870 870 869 869 869 868 868 868 868 867 867 866 865 864
784 787 789 790 791 793 795 796 798 799 801 803 805 807 808 810 812 815 817 818 819 821 823 826 828 830 831 833 835 836 838 839 841 843 844 845 846 847 849 850 851 852 852 853 853 854 855 855 856 857 858 859 860 861 862 862 864 864 865 866 866 866 866 866 867 868 868 869 869 869 869 869 869 869 869 869 868 868 868 867 867 867 866 865 864
779 782 783 784 786 788 790 792 793 795 796 799 801 802 803 805 808 809 811 813 815 818 820 822 824 826 827 829 831 833 834 836 838 839 840 842 843 844 846 847 848 849 850 851 851 852 853 853 854 855 856 857 858 860 860 861 862 863 863 864 865 865 865 866 867 868 868 868 868 867 868 867 868 868 868 868 868 867 868 867 867 866 866 865 864
775 777 779 781 783 785 787 788 789 790 792 794 796 797 799 801 803 804 806 808 811 814 816 818 819 821 823 825 827 828 830 832 834 836 837 838 839 841 842 844 845 846 847 848 849 850 851 852 852 853 854 855 856 858 859 860 861 861 862 863 863 864 865 865 866 867 867 868 867 867 867 868 868 868 868 868 868 867 867 867 867 866 865 864 863
771 774 776 777 779 781 782 784 785 786 787 789 791 793 795 796 798 799 801 803 807 809 811 812 814 816 818 820 822 824 826 827 829 831 833 834 836 837 839 840 842 843 844 845 846 848 849 850 850 851 852 853 855 856 857 858 859 860 860 861 862 862 863 864 865 866 866 867 867 867 867 867 868 868 868 868 867 867 867 867 867 866 865 864 863